Hourly Data Report for October 08, 2017

All times are specified in Local Standard Time (LST). Add 1 hour to adjust for Daylight Saving Time where and when it is observed.

WINNIPEG THE FORKS
MANITOBA

49°53'18.008" N
97°07'46.007" W
230.00 m
5023262
71579
XWN

Download Data

Hourly Data (October 2017)
Hourly Data Report for October 8, 2017
Temp Definition
°C
Dew Point Temp Definition
°C
Rel Hum Definition
%
Wind Dir Definition
10's deg

Wind Spd Definition
km/h
Visibility Definition
km
Stn Press Definition
kPa
Hmdx Definition


Wind Chill Definition


Weather Definition


TIME
00:00 12.3 3.0 53 25 8   96.60     LegendNANA
01:00 11.1 2.6 56 25 7   96.71     LegendNANA
02:00 10.1 0.2 50 25 8   96.78     LegendNANA
03:00 9.0 0.1 53 24 8   96.83     LegendNANA
04:00 7.0 0.3 63 21 7   96.82     LegendNANA
05:00 6.6 0.7 66 22 8   96.88     LegendNANA
06:00 6.4 1.0 68 22 7   96.96     LegendNANA
07:00 5.8 1.0 71 22 8   97.05     LegendNANA
08:00 6.2 1.4 71 22 9   97.12     LegendNANA
09:00 9.1 2.3 63 26 10   97.23     LegendNANA
10:00 10.5 1.9 55 28 9   97.32     LegendNANA
11:00 11.5 1.3 49 27 12   97.41     LegendNANA
12:00 12.5 1.6 48 29 10   97.45     LegendNANA
13:00 13.2 0.5 42 25 10   97.51     LegendNANA
14:00 13.6 0.7 41 27 7   97.55     LegendNANA
15:00 13.1 0.3 41 26 9   97.60     LegendNANA
16:00 13.5 0.0 39 26 10   97.67     LegendNANA
17:00 12.6 -1.0 39 27 9   97.77     LegendNANA
18:00 11.8 -0.7 42 27 9   97.89     LegendNANA
19:00 10.5 -1.4 43 29 7   98.05     LegendNANA
20:00 8.6 -3.7 42 26 10   98.17     LegendNANA
21:00 7.0 -4.8 43 26 10   98.23     LegendNANA
22:00 6.4 -4.5 46 26 8   98.32     LegendNANA
23:00 5.8 -3.7 50 25 7   98.39     LegendNANA

Notes on Data Quality.

Legend

  • E = Estimated
  • M = Missing
  • NA = Not Available
  • ‡ = Partner data that is not subject to review by the National Climate Archives
Date modified: